Time,TemperatureF,DewpointF,PressureIn,WindDirection,WindDirectionDegrees,WindSpeedMPH,WindSpeedGustMPH,Humidity,HourlyPrecipIn,Conditions,Clouds,dailyrainin,SoftwareType,DateUTC
2013-11-27 00:04:00,32.9,28.0,30.57,WSW,247,0.0,0.0,82,0.00,,,0.00,WeatherTracker,2013-11-27 07:04:00,
2013-11-27 00:09:00,32.7,27.8,30.57,WSW,247,0.0,0.0,82,0.00,,,0.00,WeatherTracker,2013-11-27 07:09:00,
2013-11-27 00:14:00,32.6,27.7,30.57,WSW,247,0.0,0.0,82,0.00,,,0.00,WeatherTracker,2013-11-27 07:14:00,
2013-11-27 00:19:00,32.5,27.6,30.57,WSW,247,0.0,0.0,82,0.00,,,0.00,WeatherTracker,2013-11-27 07:19:00,
2013-11-27 00:24:00,32.3,27.4,30.57,WSW,247,0.0,0.0,82,0.00,,,0.00,WeatherTracker,2013-11-27 07:24:00,
2013-11-27 00:29:00,32.4,27.5,30.57,WSW,247,0.0,0.0,82,0.00,,,0.00,WeatherTracker,2013-11-27 07:29:00,
2013-11-27 00:34:00,32.3,27.4,30.57,WSW,247,0.0,0.0,82,0.00,,,0.00,WeatherTracker,2013-11-27 07:34:00,
2013-11-27 00:39:00,32.0,27.4,30.57,WSW,247,0.0,0.0,83,0.00,,,0.00,WeatherTracker,2013-11-27 07:39:00,
2013-11-27 00:44:00,31.9,27.3,30.57,WSW,247,0.0,0.0,83,0.00,,,0.00,WeatherTracker,2013-11-27 07:44:00,
2013-11-27 00:49:00,31.7,27.1,30.57,WSW,247,0.0,0.0,83,0.00,,,0.00,WeatherTracker,2013-11-27 07:49:00,
2013-11-27 00:54:00,31.5,27.2,30.57,WSW,247,0.0,0.0,84,0.00,,,0.00,WeatherTracker,2013-11-27 07:54:00,
2013-11-27 00:59:00,31.5,27.2,30.57,WSW,247,0.0,0.0,84,0.00,,,0.00,WeatherTracker,2013-11-27 07:59:00,
2013-11-27 01:04:00,31.6,27.3,30.57,WSW,247,0.0,0.0,84,0.00,,,0.00,WeatherTracker,2013-11-27 08:04:00,
2013-11-27 01:09:00,31.5,27.2,30.57,WSW,247,0.0,0.0,84,0.00,,,0.00,WeatherTracker,2013-11-27 08:09:00,
2013-11-27 01:14:00,31.4,27.1,30.56,WSW,247,0.0,0.0,84,0.00,,,0.00,WeatherTracker,2013-11-27 08:14:00,
2013-11-27 01:20:00,31.4,27.1,30.56,WSW,247,0.0,1.0,84,0.00,,,0.00,WeatherTracker,2013-11-27 08:20:00,
2013-11-27 01:25:00,31.2,26.9,30.56,WSW,247,0.0,1.0,84,0.00,,,0.00,WeatherTracker,2013-11-27 08:25:00,
2013-11-27 01:30:00,31.1,27.1,30.56,WSW,247,0.0,0.0,85,0.00,,,0.00,WeatherTracker,2013-11-27 08:30:00,
2013-11-27 01:35:00,31.1,27.1,30.56,WSW,247,0.0,1.0,85,0.00,,,0.00,WeatherTracker,2013-11-27 08:35:00,
2013-11-27 01:40:00,31.1,27.1,30.56,WSW,247,0.0,1.0,85,0.00,,,0.00,WeatherTracker,2013-11-27 08:40:00,
2013-11-27 01:45:00,31.0,26.7,30.57,WSW,247,0.0,0.0,84,0.00,,,0.00,WeatherTracker,2013-11-27 08:45:00,
2013-11-27 01:50:00,30.9,26.6,30.56,WSW,247,0.0,1.0,84,0.00,,,0.00,WeatherTracker,2013-11-27 08:50:00,
2013-11-27 01:55:00,30.7,26.4,30.56,WSW,247,0.0,1.0,84,0.00,,,0.00,WeatherTracker,2013-11-27 08:55:00,
2013-11-27 02:00:00,30.7,26.7,30.56,WSW,247,0.0,0.0,85,0.00,,,0.00,WeatherTracker,2013-11-27 09:00:00,
2013-11-27 02:05:00,30.5,26.5,30.56,WSW,247,0.0,0.0,85,0.00,,,0.00,WeatherTracker,2013-11-27 09:05:00,
2013-11-27 02:10:00,30.4,26.4,30.56,WSW,247,0.0,0.0,85,0.00,,,0.00,WeatherTracker,2013-11-27 09:10:00,
2013-11-27 02:15:00,30.2,26.2,30.56,WSW,247,0.0,0.0,85,0.00,,,0.00,WeatherTracker,2013-11-27 09:15:00,
2013-11-27 02:20:00,29.9,25.9,30.56,WSW,247,0.0,0.0,85,0.00,,,0.00,WeatherTracker,2013-11-27 09:20:00,
2013-11-27 02:25:00,29.8,26.1,30.56,WSW,247,0.0,0.0,86,0.00,,,0.00,WeatherTracker,2013-11-27 09:25:00,
2013-11-27 02:30:00,29.7,26.0,30.56,WSW,247,0.0,0.0,86,0.00,,,0.00,WeatherTracker,2013-11-27 09:30:00,
2013-11-27 02:35:00,29.7,26.0,30.56,WSW,247,0.0,0.0,86,0.00,,,0.00,WeatherTracker,2013-11-27 09:35:00,
2013-11-27 02:40:00,29.6,25.9,30.56,WSW,247,0.0,0.0,86,0.00,,,0.00,WeatherTracker,2013-11-27 09:40:00,
2013-11-27 02:45:00,29.5,26.1,30.55,WSW,247,0.0,0.0,87,0.00,,,0.00,WeatherTracker,2013-11-27 09:45:00,
2013-11-27 02:50:00,29.4,26.0,30.55,WSW,247,0.0,0.0,87,0.00,,,0.00,WeatherTracker,2013-11-27 09:50:00,
2013-11-27 02:55:00,29.2,25.5,30.55,WSW,247,0.0,0.0,86,0.00,,,0.00,WeatherTracker,2013-11-27 09:55:00,
2013-11-27 03:00:00,29.2,25.8,30.55,WSW,247,0.0,0.0,87,0.00,,,0.00,WeatherTracker,2013-11-27 10:00:00,
2013-11-27 03:05:00,29.2,25.8,30.55,WSW,247,0.0,0.0,87,0.00,,,0.00,WeatherTracker,2013-11-27 10:05:00,
2013-11-27 03:10:00,29.2,25.5,30.55,WSW,247,0.0,0.0,86,0.00,,,0.00,WeatherTracker,2013-11-27 10:10:00,
2013-11-27 03:15:00,29.1,25.7,30.54,WSW,247,0.0,0.0,87,0.00,,,0.00,WeatherTracker,2013-11-27 10:15:00,
2013-11-27 03:20:00,29.1,25.7,30.54,WSW,247,0.0,0.0,87,0.00,,,0.00,WeatherTracker,2013-11-27 10:20:00,
2013-11-27 03:25:00,29.5,26.1,30.54,WSW,247,0.0,0.0,87,0.00,,,0.00,WeatherTracker,2013-11-27 10:25:00,
2013-11-27 03:30:00,29.6,25.9,30.55,WSW,247,0.0,0.0,86,0.00,,,0.00,WeatherTracker,2013-11-27 10:30:00,
2013-11-27 03:35:00,29.6,25.9,30.55,WSW,247,0.0,0.0,86,0.00,,,0.00,WeatherTracker,2013-11-27 10:35:00,
2013-11-27 03:40:00,29.4,25.7,30.55,WSW,247,0.0,0.0,86,0.00,,,0.00,WeatherTracker,2013-11-27 10:40:00,
2013-11-27 03:45:00,29.3,25.6,30.55,WSW,247,0.0,0.0,86,0.00,,,0.00,WeatherTracker,2013-11-27 10:45:00,
2013-11-27 03:50:00,29.4,25.5,30.55,WSW,247,0.0,0.0,85,0.00,,,0.00,WeatherTracker,2013-11-27 10:50:00,
2013-11-27 03:56:00,29.4,25.5,30.54,WSW,247,0.0,0.0,85,0.00,,,0.00,WeatherTracker,2013-11-27 10:56:00,
2013-11-27 04:01:00,29.4,25.5,30.54,WSW,247,0.0,0.0,85,0.00,,,0.00,WeatherTracker,2013-11-27 11:01:00,
2013-11-27 04:06:00,29.1,25.2,30.54,WSW,247,0.0,0.0,85,0.00,,,0.00,WeatherTracker,2013-11-27 11:06:00,
2013-11-27 04:11:00,29.0,25.1,30.54,WSW,247,0.0,0.0,85,0.00,,,0.00,WeatherTracker,2013-11-27 11:11:00,
2013-11-27 04:16:00,28.8,24.9,30.54,WSW,247,0.0,0.0,85,0.00,,,0.00,WeatherTracker,2013-11-27 11:16:00,
2013-11-27 04:21:00,28.6,24.7,30.54,WSW,247,0.0,0.0,85,0.00,,,0.00,WeatherTracker,2013-11-27 11:21:00,
2013-11-27 04:26:00,28.4,24.8,30.54,WSW,247,0.0,0.0,86,0.00,,,0.00,WeatherTracker,2013-11-27 11:26:00,
2013-11-27 04:31:00,28.4,24.8,30.54,WSW,247,0.0,0.0,86,0.00,,,0.00,WeatherTracker,2013-11-27 11:31:00,
2013-11-27 04:36:00,28.3,24.7,30.54,WSW,247,0.0,0.0,86,0.00,,,0.00,WeatherTracker,2013-11-27 11:36:00,
2013-11-27 04:41:00,28.1,24.5,30.54,WSW,247,0.0,0.0,86,0.00,,,0.00,WeatherTracker,2013-11-27 11:41:00,
2013-11-27 04:46:00,28.0,24.4,30.54,WSW,247,0.0,0.0,86,0.00,,,0.00,WeatherTracker,2013-11-27 11:46:00,
2013-11-27 04:51:00,27.8,24.2,30.54,WSW,247,0.0,0.0,86,0.00,,,0.00,WeatherTracker,2013-11-27 11:51:00,
2013-11-27 04:56:00,27.9,24.5,30.54,WSW,247,0.0,0.0,87,0.00,,,0.00,WeatherTracker,2013-11-27 11:56:00,
2013-11-27 05:01:00,28.1,24.5,30.54,WSW,247,0.0,0.0,86,0.00,,,0.00,WeatherTracker,2013-11-27 12:01:00,
2013-11-27 05:06:00,28.3,24.7,30.54,WSW,247,0.0,0.0,86,0.00,,,0.00,WeatherTracker,2013-11-27 12:06:00,
2013-11-27 05:11:00,28.0,24.4,30.54,WSW,247,0.0,0.0,86,0.00,,,0.00,WeatherTracker,2013-11-27 12:11:00,
2013-11-27 05:16:00,28.1,24.5,30.54,WSW,247,0.0,0.0,86,0.00,,,0.00,WeatherTracker,2013-11-27 12:16:00,
2013-11-27 05:21:00,28.1,24.5,30.54,WSW,247,0.0,0.0,86,0.00,,,0.00,WeatherTracker,2013-11-27 12:21:00,
2013-11-27 05:26:00,28.1,24.5,30.54,WSW,247,0.0,0.0,86,0.00,,,0.00,WeatherTracker,2013-11-27 12:26:00,
2013-11-27 05:32:00,28.3,24.4,30.54,WSW,247,0.0,0.0,85,0.00,,,0.00,WeatherTracker,2013-11-27 12:32:00,
2013-11-27 05:37:00,28.3,24.4,30.54,WSW,247,0.0,0.0,85,0.00,,,0.00,WeatherTracker,2013-11-27 12:37:00,
2013-11-27 05:42:00,28.1,24.2,30.54,WSW,247,0.0,0.0,85,0.00,,,0.00,WeatherTracker,2013-11-27 12:42:00,
2013-11-27 05:47:00,28.1,24.2,30.54,WSW,247,0.0,0.0,85,0.00,,,0.00,WeatherTracker,2013-11-27 12:47:00,
2013-11-27 05:52:00,28.1,24.2,30.55,WSW,247,0.0,0.0,85,0.00,,,0.00,WeatherTracker,2013-11-27 12:52:00,
2013-11-27 05:57:00,28.3,24.4,30.55,WSW,247,0.0,0.0,85,0.00,,,0.00,WeatherTracker,2013-11-27 12:57:00,
2013-11-27 06:02:00,28.4,24.5,30.55,WSW,247,0.0,0.0,85,0.00,,,0.00,WeatherTracker,2013-11-27 13:02:00,
2013-11-27 06:07:00,28.3,24.1,30.55,WSW,247,0.0,0.0,84,0.00,,,0.00,WeatherTracker,2013-11-27 13:07:00,
2013-11-27 06:12:00,28.1,24.2,30.55,WSW,247,0.0,0.0,85,0.00,,,0.00,WeatherTracker,2013-11-27 13:12:00,
2013-11-27 06:17:00,27.8,23.9,30.55,WSW,247,0.0,1.0,85,0.00,,,0.00,WeatherTracker,2013-11-27 13:17:00,
2013-11-27 06:22:00,27.8,23.9,30.55,WSW,247,0.0,0.0,85,0.00,,,0.00,WeatherTracker,2013-11-27 13:22:00,
2013-11-27 06:27:00,28.0,24.4,30.55,WSW,247,0.0,0.0,86,0.00,,,0.00,WeatherTracker,2013-11-27 13:27:00,
2013-11-27 06:32:00,27.8,23.9,30.55,WSW,247,0.0,0.0,85,0.00,,,0.00,WeatherTracker,2013-11-27 13:32:00,
2013-11-27 06:37:00,27.4,23.8,30.55,WSW,247,0.0,0.0,86,0.00,,,0.00,WeatherTracker,2013-11-27 13:37:00,
2013-11-27 06:42:00,27.1,23.5,30.55,WSW,247,0.0,0.0,86,0.00,,,0.00,WeatherTracker,2013-11-27 13:42:00,
2013-11-27 06:47:00,27.0,23.7,30.55,WSW,247,0.0,0.0,87,0.00,,,0.00,WeatherTracker,2013-11-27 13:47:00,
2013-11-27 06:52:00,27.0,23.7,30.55,WSW,247,0.0,0.0,87,0.00,,,0.00,WeatherTracker,2013-11-27 13:52:00,
2013-11-27 06:57:00,27.1,23.8,30.55,WSW,247,0.0,1.0,87,0.00,,,0.00,WeatherTracker,2013-11-27 13:57:00,
2013-11-27 07:03:00,27.2,23.9,30.55,WSW,247,0.0,1.0,87,0.00,,,0.00,WeatherTracker,2013-11-27 14:03:00,
2013-11-27 07:08:00,27.2,23.9,30.55,WSW,247,0.0,0.0,87,0.00,,,0.00,WeatherTracker,2013-11-27 14:08:00,
2013-11-27 07:13:00,27.1,23.8,30.55,WSW,247,0.0,0.0,87,0.00,,,0.00,WeatherTracker,2013-11-27 14:13:00,
2013-11-27 07:18:00,27.2,24.1,30.55,WSW,247,0.0,0.0,88,0.00,,,0.00,WeatherTracker,2013-11-27 14:18:00,
2013-11-27 07:23:00,27.4,24.3,30.55,WSW,247,0.0,1.0,88,0.00,,,0.00,WeatherTracker,2013-11-27 14:23:00,
2013-11-27 07:28:00,27.6,24.5,30.55,WSW,247,0.0,1.0,88,0.00,,,0.00,WeatherTracker,2013-11-27 14:28:00,
2013-11-27 07:33:00,28.0,24.6,30.55,WSW,247,0.0,0.0,87,0.00,,,0.00,WeatherTracker,2013-11-27 14:33:00,
2013-11-27 07:38:00,28.8,25.4,30.55,WSW,247,0.0,0.0,87,0.00,,,0.00,WeatherTracker,2013-11-27 14:38:00,
2013-11-27 07:43:00,29.6,26.2,30.55,WSW,247,0.0,0.0,87,0.00,,,0.00,WeatherTracker,2013-11-27 14:43:00,
2013-11-27 07:48:00,30.1,26.1,30.54,WSW,247,0.0,0.0,85,0.00,,,0.00,WeatherTracker,2013-11-27 14:48:00,
2013-11-27 07:53:00,31.0,26.7,30.54,WSW,247,0.0,1.0,84,0.00,,,0.00,WeatherTracker,2013-11-27 14:53:00,
2013-11-27 07:58:00,31.5,26.9,30.54,WSW,247,0.0,1.0,83,0.00,,,0.00,WeatherTracker,2013-11-27 14:58:00,
2013-11-27 08:03:00,32.1,26.9,30.54,NW,305,0.0,1.0,81,0.00,,,0.00,WeatherTracker,2013-11-27 15:03:00,
2013-11-27 08:08:00,32.3,26.8,30.54,NW,305,0.0,1.0,80,0.00,,,0.00,WeatherTracker,2013-11-27 15:08:00,
2013-11-27 08:13:00,33.0,27.2,30.54,WNW,300,0.0,1.0,79,0.00,,,0.00,WeatherTracker,2013-11-27 15:13:00,
2013-11-27 08:18:00,33.6,27.8,30.53,WNW,300,1.0,2.0,79,0.00,,,0.00,WeatherTracker,2013-11-27 15:18:00,
2013-11-27 08:23:00,33.9,27.8,30.54,WSW,253,0.0,2.0,78,0.00,,,0.00,WeatherTracker,2013-11-27 15:23:00,
2013-11-27 08:28:00,34.4,27.6,30.54,WSW,256,0.0,2.0,76,0.00,,,0.00,WeatherTracker,2013-11-27 15:28:00,
2013-11-27 08:33:00,35.0,27.6,30.54,WSW,256,0.0,1.0,74,0.00,,,0.00,WeatherTracker,2013-11-27 15:33:00,
2013-11-27 08:38:00,35.6,28.1,30.53,South,186,0.0,1.0,74,0.00,,,0.00,WeatherTracker,2013-11-27 15:38:00,
2013-11-27 08:44:00,35.9,27.8,30.54,WSW,244,0.0,2.0,72,0.00,,,0.00,WeatherTracker,2013-11-27 15:44:00,
2013-11-27 08:49:00,36.2,28.1,30.54,West,267,0.0,2.0,72,0.00,,,0.00,WeatherTracker,2013-11-27 15:49:00,
2013-11-27 08:54:00,36.5,28.0,30.54,ENE,61,0.0,3.0,71,0.00,,,0.00,WeatherTracker,2013-11-27 15:54:00,
2013-11-27 08:59:00,36.5,28.0,30.53,SSW,197,0.0,3.0,71,0.00,,,0.00,WeatherTracker,2013-11-27 15:59:00,
2013-11-27 09:04:00,36.6,27.4,30.53,SW,230,3.0,5.0,69,0.00,,,0.00,WeatherTracker,2013-11-27 16:04:00,
2013-11-27 09:09:00,36.7,27.5,30.53,WSW,237,0.0,5.0,69,0.00,,,0.00,WeatherTracker,2013-11-27 16:09:00,
2013-11-27 09:14:00,36.8,27.2,30.54,NNE,23,0.0,5.0,68,0.00,,,0.00,WeatherTracker,2013-11-27 16:14:00,
2013-11-27 09:19:00,37.5,27.9,30.53,WNW,284,1.0,3.0,68,0.00,,,0.00,WeatherTracker,2013-11-27 16:19:00,
2013-11-27 09:24:00,38.0,28.4,30.53,ESE,102,0.0,3.0,68,0.00,,,0.00,WeatherTracker,2013-11-27 16:24:00,
2013-11-27 09:29:00,38.2,27.9,30.53,SSW,211,0.0,2.0,66,0.00,,,0.00,WeatherTracker,2013-11-27 16:29:00,
2013-11-27 09:34:00,38.9,28.5,30.53,WSW,246,0.0,3.0,66,0.00,,,0.00,WeatherTracker,2013-11-27 16:34:00,
2013-11-27 09:39:00,39.4,28.6,30.53,WSW,248,0.0,3.0,65,0.00,,,0.00,WeatherTracker,2013-11-27 16:39:00,
2013-11-27 09:44:00,40.0,28.8,30.53,West,269,0.0,3.0,64,0.00,,,0.00,WeatherTracker,2013-11-27 16:44:00,
2013-11-27 09:49:00,39.8,28.2,30.53,WNW,293,0.0,3.0,63,0.00,,,0.00,WeatherTracker,2013-11-27 16:49:00,
2013-11-27 09:54:00,40.8,29.2,30.53,WSW,242,0.0,3.0,63,0.00,,,0.00,WeatherTracker,2013-11-27 16:54:00,
2013-11-27 09:59:00,41.3,28.9,30.53,WNW,294,0.0,3.0,61,0.00,,,0.00,WeatherTracker,2013-11-27 16:59:00,
2013-11-27 10:04:00,41.5,29.1,30.53,WSW,238,1.0,3.0,61,0.00,,,0.00,WeatherTracker,2013-11-27 17:04:00,
2013-11-27 10:09:00,41.5,29.1,30.53,North,11,2.0,3.0,61,0.00,,,0.00,WeatherTracker,2013-11-27 17:09:00,
2013-11-27 10:14:00,41.4,28.6,30.52,North,360,0.0,3.0,60,0.00,,,0.00,WeatherTracker,2013-11-27 17:14:00,
2013-11-27 10:19:00,41.9,29.0,30.52,South,180,0.0,3.0,60,0.00,,,0.00,WeatherTracker,2013-11-27 17:19:00,
2013-11-27 10:24:00,41.5,29.1,30.52,North,360,2.0,2.0,61,0.00,,,0.00,WeatherTracker,2013-11-27 17:24:00,
2013-11-27 10:29:00,41.5,28.7,30.52,NNW,329,2.0,4.0,60,0.00,,,0.00,WeatherTracker,2013-11-27 17:29:00,
2013-11-27 10:34:00,42.5,29.2,30.51,NNW,329,1.0,4.0,59,0.00,,,0.00,WeatherTracker,2013-11-27 17:34:00,
2013-11-27 10:39:00,43.3,28.7,30.51,WSW,240,0.0,3.0,56,0.00,,,0.00,WeatherTracker,2013-11-27 17:39:00,
2013-11-27 10:44:00,43.7,29.0,30.51,SSW,202,0.0,3.0,56,0.00,,,0.00,WeatherTracker,2013-11-27 17:44:00,
2013-11-27 10:50:00,43.8,29.1,30.50,South,188,0.0,2.0,56,0.00,,,0.00,WeatherTracker,2013-11-27 17:50:00,
2013-11-27 10:55:00,43.9,28.8,30.50,SSW,193,0.0,2.0,55,0.00,,,0.00,WeatherTracker,2013-11-27 17:55:00,
2013-11-27 11:00:00,44.3,29.2,30.49,South,182,0.0,2.0,55,0.00,,,0.00,WeatherTracker,2013-11-27 18:00:00,
2013-11-27 11:05:00,44.8,29.2,30.49,ENE,76,2.0,3.0,54,0.00,,,0.00,WeatherTracker,2013-11-27 18:05:00,
2013-11-27 11:10:00,44.6,29.0,30.49,SSE,150,1.0,3.0,54,0.00,,,0.00,WeatherTracker,2013-11-27 18:10:00,
2013-11-27 11:15:00,45.1,29.0,30.48,SSE,160,0.0,3.0,53,0.00,,,0.00,WeatherTracker,2013-11-27 18:15:00,
2013-11-27 11:20:00,44.8,27.8,30.48,ESE,112,0.0,4.0,51,0.00,,,0.00,WeatherTracker,2013-11-27 18:20:00,
2013-11-27 11:25:00,45.3,29.2,30.48,SW,216,3.0,4.0,53,0.00,,,0.00,WeatherTracker,2013-11-27 18:25:00,
2013-11-27 11:30:00,45.4,28.8,30.48,SSE,148,1.0,3.0,52,0.00,,,0.00,WeatherTracker,2013-11-27 18:30:00,
2013-11-27 11:35:00,46.5,29.4,30.47,NW,325,0.0,3.0,51,0.00,,,0.00,WeatherTracker,2013-11-27 18:35:00,
2013-11-27 11:40:00,46.1,29.0,30.47,East,101,2.0,4.0,51,0.00,,,0.00,WeatherTracker,2013-11-27 18:40:00,
2013-11-27 11:45:00,45.9,28.8,30.46,ESE,113,1.0,4.0,51,0.00,,,0.00,WeatherTracker,2013-11-27 18:45:00,
2013-11-27 11:50:00,45.6,29.0,30.46,ESE,113,1.0,3.0,52,0.00,,,0.00,WeatherTracker,2013-11-27 18:50:00,
2013-11-27 11:55:00,46.7,29.1,30.45,West,273,0.0,3.0,50,0.00,,,0.00,WeatherTracker,2013-11-27 18:55:00,
2013-11-27 11:56:00,46.7,29.1,30.45,West,273,2.0,3.0,50,0.00,,,0.00,WeatherTracker,2013-11-27 18:56:00,
2013-11-27 12:01:00,46.7,28.6,30.45,East,91,1.0,5.0,49,0.00,,,0.00,WeatherTracker,2013-11-27 19:01:00,
2013-11-27 12:06:00,46.5,29.4,30.45,ESE,107,0.0,6.0,51,0.00,,,0.00,WeatherTracker,2013-11-27 19:06:00,
2013-11-27 12:11:00,46.2,29.1,30.45,SE,144,1.0,6.0,51,0.00,,,0.00,WeatherTracker,2013-11-27 19:11:00,
2013-11-27 12:16:00,46.3,28.7,30.44,ENE,76,2.0,5.0,50,0.00,,,0.00,WeatherTracker,2013-11-27 19:16:00,
2013-11-27 12:21:00,46.4,29.3,30.44,East,101,3.0,5.0,51,0.00,,,0.00,WeatherTracker,2013-11-27 19:21:00,
2013-11-27 12:26:00,46.4,29.3,30.44,ESE,104,1.0,5.0,51,0.00,,,0.00,WeatherTracker,2013-11-27 19:26:00,
2013-11-27 12:31:00,47.4,29.2,30.43,East,82,1.0,4.0,49,0.00,,,0.00,WeatherTracker,2013-11-27 19:31:00,
2013-11-27 12:36:00,47.3,29.1,30.43,East,100,1.0,3.0,49,0.00,,,0.00,WeatherTracker,2013-11-27 19:36:00,
2013-11-27 12:42:00,47.1,29.4,30.43,NE,49,2.0,6.0,50,0.00,,,0.00,WeatherTracker,2013-11-27 19:42:00,
2013-11-27 12:47:00,46.5,29.4,30.42,ESE,113,2.0,6.0,51,0.00,,,0.00,WeatherTracker,2013-11-27 19:47:00,
2013-11-27 12:52:00,47.7,29.5,30.42,ESE,106,1.0,5.0,49,0.00,,,0.00,WeatherTracker,2013-11-27 19:52:00,
2013-11-27 12:57:00,47.0,29.3,30.42,NNE,15,3.0,6.0,50,0.00,,,0.00,WeatherTracker,2013-11-27 19:57:00,
2013-11-27 13:02:00,47.1,29.4,30.42,SSE,165,1.0,6.0,50,0.00,,,0.00,WeatherTracker,2013-11-27 20:02:00,
2013-11-27 13:07:00,47.2,30.0,30.41,NE,55,0.0,6.0,51,0.00,,,0.00,WeatherTracker,2013-11-27 20:07:00,
2013-11-27 13:12:00,47.0,29.8,30.41,SE,124,2.0,5.0,51,0.00,,,0.00,WeatherTracker,2013-11-27 20:12:00,
2013-11-27 13:17:00,46.9,29.7,30.41,SE,146,3.0,7.0,51,0.00,,,0.00,WeatherTracker,2013-11-27 20:17:00,
2013-11-27 13:22:00,46.8,29.6,30.41,SE,132,2.0,7.0,51,0.00,,,0.00,WeatherTracker,2013-11-27 20:22:00,
2013-11-27 13:27:00,47.0,29.8,30.40,SSE,165,0.0,5.0,51,0.00,,,0.00,WeatherTracker,2013-11-27 20:27:00,
2013-11-27 13:32:00,47.4,29.7,30.40,SE,134,3.0,5.0,50,0.00,,,0.00,WeatherTracker,2013-11-27 20:32:00,
2013-11-27 13:37:00,46.7,29.5,30.40,South,169,2.0,4.0,51,0.00,,,0.00,WeatherTracker,2013-11-27 20:37:00,
2013-11-27 13:42:00,46.7,29.5,30.40,SE,125,2.0,5.0,51,0.00,,,0.00,WeatherTracker,2013-11-27 20:42:00,
2013-11-27 13:47:00,46.5,29.8,30.39,East,96,3.0,5.0,52,0.00,,,0.00,WeatherTracker,2013-11-27 20:47:00,
2013-11-27 13:52:00,46.5,29.8,30.39,ESE,108,1.0,5.0,52,0.00,,,0.00,WeatherTracker,2013-11-27 20:52:00,
2013-11-27 13:57:00,46.4,30.2,30.39,SSE,157,1.0,5.0,53,0.00,,,0.00,WeatherTracker,2013-11-27 20:57:00,
2013-11-27 14:02:00,46.5,29.8,30.39,ESE,120,0.0,5.0,52,0.00,,,0.00,WeatherTracker,2013-11-27 21:02:00,
2013-11-27 14:07:00,46.5,29.4,30.39,South,175,2.0,5.0,51,0.00,,,0.00,WeatherTracker,2013-11-27 21:07:00,
2013-11-27 14:12:00,46.8,29.6,30.39,ESE,102,0.0,5.0,51,0.00,,,0.00,WeatherTracker,2013-11-27 21:12:00,
2013-11-27 14:18:00,47.0,29.8,30.39,NNW,344,1.0,5.0,51,0.00,,,0.00,WeatherTracker,2013-11-27 21:18:00,
2013-11-27 14:23:00,47.0,29.3,30.39,East,86,0.0,4.0,50,0.00,,,0.00,WeatherTracker,2013-11-27 21:23:00,
2013-11-27 14:28:00,46.9,29.7,30.39,North,11,0.0,5.0,51,0.00,,,0.00,WeatherTracker,2013-11-27 21:28:00,
2013-11-27 14:33:00,47.2,29.0,30.39,East,101,1.0,7.0,49,0.00,,,0.00,WeatherTracker,2013-11-27 21:33:00,
2013-11-27 14:38:00,47.8,29.6,30.38,ENE,57,2.0,7.0,49,0.00,,,0.00,WeatherTracker,2013-11-27 21:38:00,
2013-11-27 14:43:00,47.3,29.6,30.38,East,85,3.0,4.0,50,0.00,,,0.00,WeatherTracker,2013-11-27 21:43:00,
2013-11-27 14:48:00,46.8,27.6,30.38,North,11,0.0,4.0,47,0.00,,,0.00,WeatherTracker,2013-11-27 21:48:00,
2013-11-27 14:53:00,47.0,28.3,30.38,NNW,344,0.0,4.0,48,0.00,,,0.00,WeatherTracker,2013-11-27 21:53:00,
2013-11-27 14:58:00,47.1,29.4,30.38,ENE,78,0.0,4.0,50,0.00,,,0.00,WeatherTracker,2013-11-27 21:58:00,
2013-11-27 15:03:00,47.3,28.6,30.37,ESE,102,2.0,5.0,48,0.00,,,0.00,WeatherTracker,2013-11-27 22:03:00,
2013-11-27 15:08:00,47.0,28.8,30.37,SE,124,1.0,5.0,49,0.00,,,0.00,WeatherTracker,2013-11-27 22:08:00,
2013-11-27 15:13:00,47.1,29.4,30.37,NE,40,1.0,4.0,50,0.00,,,0.00,WeatherTracker,2013-11-27 22:13:00,
2013-11-27 15:18:00,46.9,28.7,30.37,NE,38,1.0,4.0,49,0.00,,,0.00,WeatherTracker,2013-11-27 22:18:00,
2013-11-27 15:23:00,47.0,28.8,30.37,ENE,67,0.0,4.0,49,0.00,,,0.00,WeatherTracker,2013-11-27 22:23:00,
2013-11-27 15:28:00,47.0,28.8,30.37,NNE,24,0.0,4.0,49,0.00,,,0.00,WeatherTracker,2013-11-27 22:28:00,
2013-11-27 15:33:00,46.7,29.1,30.37,East,86,0.0,4.0,50,0.00,,,0.00,WeatherTracker,2013-11-27 22:33:00,
2013-11-27 15:38:00,46.7,28.6,30.37,North,9,2.0,3.0,49,0.00,,,0.00,WeatherTracker,2013-11-27 22:38:00,
2013-11-27 15:43:00,46.5,28.4,30.37,ESE,106,0.0,4.0,49,0.00,,,0.00,WeatherTracker,2013-11-27 22:43:00,
2013-11-27 15:48:00,46.8,28.7,30.37,ENE,74,0.0,4.0,49,0.00,,,0.00,WeatherTracker,2013-11-27 22:48:00,
2013-11-27 15:53:00,47.1,28.9,30.37,NNE,12,2.0,3.0,49,0.00,,,0.00,WeatherTracker,2013-11-27 22:53:00,
2013-11-27 15:58:00,46.9,28.7,30.37,ENE,70,0.0,3.0,49,0.00,,,0.00,WeatherTracker,2013-11-27 22:58:00,
2013-11-27 16:03:00,46.8,28.7,30.37,NNE,22,1.0,3.0,49,0.00,,,0.00,WeatherTracker,2013-11-27 23:03:00,
2013-11-27 16:08:00,46.6,28.5,30.37,NNE,12,1.0,3.0,49,0.00,,,0.00,WeatherTracker,2013-11-27 23:08:00,
2013-11-27 16:13:00,46.5,28.9,30.37,NNW,346,1.0,3.0,50,0.00,,,0.00,WeatherTracker,2013-11-27 23:13:00,
2013-11-27 16:19:00,46.2,28.6,30.37,North,355,0.0,4.0,50,0.00,,,0.00,WeatherTracker,2013-11-27 23:19:00,
2013-11-27 16:24:00,45.9,28.8,30.37,ESE,115,1.0,4.0,51,0.00,,,0.00,WeatherTracker,2013-11-27 23:24:00,
2013-11-27 16:29:00,45.7,28.6,30.37,ESE,115,0.0,2.0,51,0.00,,,0.00,WeatherTracker,2013-11-27 23:29:00,
2013-11-27 16:34:00,45.5,28.4,30.37,ESE,114,0.0,2.0,51,0.00,,,0.00,WeatherTracker,2013-11-27 23:34:00,
2013-11-27 16:39:00,45.5,28.4,30.37,ESE,102,0.0,3.0,51,0.00,,,0.00,WeatherTracker,2013-11-27 23:39:00,
2013-11-27 16:44:00,45.4,28.8,30.37,ESE,102,0.0,3.0,52,0.00,,,0.00,WeatherTracker,2013-11-27 23:44:00,
2013-11-27 16:49:00,45.1,28.5,30.37,ESE,102,0.0,2.0,52,0.00,,,0.00,WeatherTracker,2013-11-27 23:49:00,
2013-11-27 16:54:00,44.9,28.8,30.37,ESE,102,0.0,2.0,53,0.00,,,0.00,WeatherTracker,2013-11-27 23:54:00,
2013-11-27 16:59:00,44.6,29.4,30.37,ESE,102,0.0,2.0,55,0.00,,,0.00,WeatherTracker,2013-11-27 23:59:00,
2013-11-27 17:04:00,44.3,29.6,30.37,ESE,102,0.0,2.0,56,0.00,,,0.00,WeatherTracker,2013-11-28 00:04:00,
2013-11-27 17:09:00,44.0,29.8,30.37,ESE,102,0.0,2.0,57,0.00,,,0.00,WeatherTracker,2013-11-28 00:09:00,
2013-11-27 17:14:00,43.9,29.7,30.37,ESE,102,0.0,1.0,57,0.00,,,0.00,WeatherTracker,2013-11-28 00:14:00,
2013-11-27 17:19:00,43.8,30.0,30.37,ESE,102,0.0,2.0,58,0.00,,,0.00,WeatherTracker,2013-11-28 00:19:00,
2013-11-27 17:24:00,43.7,29.9,30.37,ESE,102,0.0,2.0,58,0.00,,,0.00,WeatherTracker,2013-11-28 00:24:00,
2013-11-27 17:29:00,43.6,29.8,30.37,ESE,102,0.0,2.0,58,0.00,,,0.00,WeatherTracker,2013-11-28 00:29:00,
2013-11-27 17:34:00,43.4,30.0,30.37,East,94,1.0,3.0,59,0.00,,,0.00,WeatherTracker,2013-11-28 00:34:00,
2013-11-27 17:39:00,43.3,29.9,30.37,NNW,330,0.0,3.0,59,0.00,,,0.00,WeatherTracker,2013-11-28 00:39:00,
2013-11-27 17:44:00,43.1,29.8,30.37,NNW,340,1.0,3.0,59,0.00,,,0.00,WeatherTracker,2013-11-28 00:44:00,
2013-11-27 17:49:00,43.0,29.7,30.37,NNW,340,1.0,3.0,59,0.00,,,0.00,WeatherTracker,2013-11-28 00:49:00,
2013-11-27 17:54:00,42.9,29.6,30.37,NNW,344,0.0,4.0,59,0.00,,,0.00,WeatherTracker,2013-11-28 00:54:00,
2013-11-27 17:59:00,42.8,29.9,30.37,NNW,344,0.0,4.0,60,0.00,,,0.00,WeatherTracker,2013-11-28 00:59:00,
2013-11-27 18:05:00,42.7,29.8,30.37,NNE,23,0.0,3.0,60,0.00,,,0.00,WeatherTracker,2013-11-28 01:05:00,
2013-11-27 18:10:00,42.6,29.7,30.37,NNE,22,1.0,3.0,60,0.00,,,0.00,WeatherTracker,2013-11-28 01:10:00,
2013-11-27 18:15:00,42.5,29.6,30.37,NNE,22,1.0,3.0,60,0.00,,,0.00,WeatherTracker,2013-11-28 01:15:00,
2013-11-27 18:20:00,42.5,29.6,30.37,NNE,22,0.0,2.0,60,0.00,,,0.00,WeatherTracker,2013-11-28 01:20:00,
2013-11-27 18:25:00,42.3,29.4,30.37,NNE,22,1.0,2.0,60,0.00,,,0.00,WeatherTracker,2013-11-28 01:25:00,
2013-11-27 18:30:00,42.2,29.3,30.37,North,9,1.0,2.0,60,0.00,,,0.00,WeatherTracker,2013-11-28 01:30:00,
2013-11-27 18:35:00,42.1,29.2,30.37,North,11,1.0,3.0,60,0.00,,,0.00,WeatherTracker,2013-11-28 01:35:00,
2013-11-27 18:40:00,42.0,29.1,30.37,NE,39,0.0,3.0,60,0.00,,,0.00,WeatherTracker,2013-11-28 01:40:00,
2013-11-27 18:45:00,41.8,29.4,30.37,NE,39,0.0,2.0,61,0.00,,,0.00,WeatherTracker,2013-11-28 01:45:00,
2013-11-27 18:50:00,41.7,29.7,30.37,NE,39,2.0,2.0,62,0.00,,,0.00,WeatherTracker,2013-11-28 01:50:00,
2013-11-27 18:55:00,41.7,29.7,30.37,NE,38,0.0,2.0,62,0.00,,,0.00,WeatherTracker,2013-11-28 01:55:00,
2013-11-27 19:00:00,41.7,29.7,30.37,NE,38,0.0,2.0,62,0.00,,,0.00,WeatherTracker,2013-11-28 02:00:00,
2013-11-27 19:05:00,41.7,29.7,30.37,NNE,18,1.0,2.0,62,0.00,,,0.00,WeatherTracker,2013-11-28 02:05:00,
2013-11-27 19:10:00,41.6,29.6,30.37,NNE,18,0.0,3.0,62,0.00,,,0.00,WeatherTracker,2013-11-28 02:10:00,
2013-11-27 19:15:00,41.5,29.5,30.37,NNE,18,0.0,3.0,62,0.00,,,0.00,WeatherTracker,2013-11-28 02:15:00,
2013-11-27 19:20:00,41.4,29.4,30.37,NNE,18,2.0,3.0,62,0.00,,,0.00,WeatherTracker,2013-11-28 02:20:00,
2013-11-27 19:25:00,41.4,29.4,30.37,NNE,13,0.0,4.0,62,0.00,,,0.00,WeatherTracker,2013-11-28 02:25:00,
2013-11-27 19:30:00,41.1,29.5,30.37,NNE,13,0.0,4.0,63,0.00,,,0.00,WeatherTracker,2013-11-28 02:30:00,
2013-11-27 19:35:00,41.0,29.4,30.37,NNW,346,1.0,2.0,63,0.00,,,0.00,WeatherTracker,2013-11-28 02:35:00,
2013-11-27 19:40:00,40.9,29.3,30.37,NW,321,1.0,3.0,63,0.00,,,0.00,WeatherTracker,2013-11-28 02:40:00,
2013-11-27 19:45:00,40.8,29.2,30.37,NW,325,2.0,4.0,63,0.00,,,0.00,WeatherTracker,2013-11-28 02:45:00,
2013-11-27 19:50:00,40.8,29.2,30.37,NW,325,1.0,4.0,63,0.00,,,0.00,WeatherTracker,2013-11-28 02:50:00,
2013-11-27 19:55:00,40.8,29.2,30.38,North,350,0.0,3.0,63,0.00,,,0.00,WeatherTracker,2013-11-28 02:55:00,
2013-11-27 20:00:00,40.7,29.1,30.37,North,350,0.0,3.0,63,0.00,,,0.00,WeatherTracker,2013-11-28 03:00:00,
2013-11-27 20:05:00,40.6,29.4,30.37,North,350,0.0,2.0,64,0.00,,,0.00,WeatherTracker,2013-11-28 03:05:00,
2013-11-27 20:10:00,40.3,29.5,30.37,North,350,0.0,2.0,65,0.00,,,0.00,WeatherTracker,2013-11-28 03:10:00,
2013-11-27 20:15:00,40.0,29.6,30.37,North,350,1.0,2.0,66,0.00,,,0.00,WeatherTracker,2013-11-28 03:15:00,
2013-11-27 20:20:00,39.9,29.5,30.37,North,350,1.0,2.0,66,0.00,,,0.00,WeatherTracker,2013-11-28 03:20:00,
2013-11-27 20:25:00,40.0,29.6,30.37,North,350,0.0,2.0,66,0.00,,,0.00,WeatherTracker,2013-11-28 03:25:00,
2013-11-27 20:31:00,40.2,29.4,30.37,North,350,0.0,2.0,65,0.00,,,0.00,WeatherTracker,2013-11-28 03:31:00,
2013-11-27 20:36:00,40.1,29.3,30.37,North,350,0.0,2.0,65,0.00,,,0.00,WeatherTracker,2013-11-28 03:36:00,
2013-11-27 20:41:00,39.9,29.1,30.37,North,350,0.0,2.0,65,0.00,,,0.00,WeatherTracker,2013-11-28 03:41:00,
2013-11-27 20:46:00,39.6,28.8,30.37,North,350,0.0,2.0,65,0.00,,,0.00,WeatherTracker,2013-11-28 03:46:00,
2013-11-27 20:51:00,39.2,28.8,30.37,North,350,0.0,2.0,66,0.00,,,0.00,WeatherTracker,2013-11-28 03:51:00,
2013-11-27 20:56:00,39.1,29.1,30.37,North,350,0.0,0.0,67,0.00,,,0.00,WeatherTracker,2013-11-28 03:56:00,
2013-11-27 21:01:00,38.9,28.9,30.37,North,350,0.0,0.0,67,0.00,,,0.00,WeatherTracker,2013-11-28 04:01:00,
2013-11-27 21:06:00,38.8,29.2,30.37,North,350,0.0,0.0,68,0.00,,,0.00,WeatherTracker,2013-11-28 04:06:00,
2013-11-27 21:11:00,39.0,29.0,30.37,North,350,0.0,0.0,67,0.00,,,0.00,WeatherTracker,2013-11-28 04:11:00,
2013-11-27 21:16:00,38.7,29.1,30.38,North,350,0.0,0.0,68,0.00,,,0.00,WeatherTracker,2013-11-28 04:16:00,
2013-11-27 21:21:00,38.3,29.0,30.38,North,350,0.0,0.0,69,0.00,,,0.00,WeatherTracker,2013-11-28 04:21:00,
2013-11-27 21:26:00,37.8,28.6,30.38,North,350,0.0,0.0,69,0.00,,,0.00,WeatherTracker,2013-11-28 04:26:00,
2013-11-27 21:31:00,37.5,29.0,30.38,North,350,0.0,0.0,71,0.00,,,0.00,WeatherTracker,2013-11-28 04:31:00,
2013-11-27 21:36:00,37.6,28.7,30.38,North,350,0.0,0.0,70,0.00,,,0.00,WeatherTracker,2013-11-28 04:36:00,
2013-11-27 21:41:00,37.4,28.9,30.38,North,350,0.0,0.0,71,0.00,,,0.00,WeatherTracker,2013-11-28 04:41:00,
2013-11-27 21:46:00,37.1,28.6,30.38,North,350,0.0,0.0,71,0.00,,,0.00,WeatherTracker,2013-11-28 04:46:00,
2013-11-27 21:51:00,36.7,28.5,30.39,North,350,0.0,0.0,72,0.00,,,0.00,WeatherTracker,2013-11-28 04:51:00,
2013-11-27 21:56:00,36.4,28.6,30.39,North,350,0.0,0.0,73,0.00,,,0.00,WeatherTracker,2013-11-28 04:56:00,
2013-11-27 22:01:00,36.4,28.6,30.39,North,350,0.0,0.0,73,0.00,,,0.00,WeatherTracker,2013-11-28 05:01:00,
2013-11-27 22:02:00,36.4,28.6,30.38,North,350,0.0,0.0,73,0.00,,,0.00,WeatherTracker,2013-11-28 05:02:00,
2013-11-27 22:07:00,36.0,28.5,30.39,North,350,0.0,0.0,74,0.00,,,0.00,WeatherTracker,2013-11-28 05:07:00,
2013-11-27 22:12:00,35.8,28.7,30.39,North,350,0.0,0.0,75,0.00,,,0.00,WeatherTracker,2013-11-28 05:12:00,
2013-11-27 22:17:00,35.6,28.5,30.39,North,350,0.0,0.0,75,0.00,,,0.00,WeatherTracker,2013-11-28 05:17:00,
2013-11-27 22:22:00,35.2,28.4,30.38,North,350,0.0,1.0,76,0.00,,,0.00,WeatherTracker,2013-11-28 05:22:00,
2013-11-27 22:27:00,34.9,28.1,30.39,North,350,0.0,1.0,76,0.00,,,0.00,WeatherTracker,2013-11-28 05:27:00,
2013-11-27 22:32:00,34.8,28.3,30.38,North,350,0.0,1.0,77,0.00,,,0.00,WeatherTracker,2013-11-28 05:32:00,
2013-11-27 22:37:00,34.8,28.3,30.38,North,350,0.0,0.0,77,0.00,,,0.00,WeatherTracker,2013-11-28 05:37:00,
2013-11-27 22:42:00,35.1,28.3,30.38,North,350,0.0,2.0,76,0.00,,,0.00,WeatherTracker,2013-11-28 05:42:00,
2013-11-27 22:47:00,35.3,28.2,30.38,North,350,0.0,2.0,75,0.00,,,0.00,WeatherTracker,2013-11-28 05:47:00,
2013-11-27 22:52:00,35.2,28.1,30.38,North,350,0.0,2.0,75,0.00,,,0.00,WeatherTracker,2013-11-28 05:52:00,
2013-11-27 22:57:00,35.1,28.0,30.38,North,350,0.0,1.0,75,0.00,,,0.00,WeatherTracker,2013-11-28 05:57:00,
2013-11-27 23:02:00,35.1,28.0,30.38,North,350,0.0,1.0,75,0.00,,,0.00,WeatherTracker,2013-11-28 06:02:00,
2013-11-27 23:07:00,35.1,28.0,30.38,North,350,0.0,1.0,75,0.00,,,0.00,WeatherTracker,2013-11-28 06:07:00,
2013-11-27 23:12:00,35.3,27.9,30.38,North,350,0.0,1.0,74,0.00,,,0.00,WeatherTracker,2013-11-28 06:12:00,
2013-11-27 23:17:00,35.9,28.1,30.38,North,350,0.0,1.0,73,0.00,,,0.00,WeatherTracker,2013-11-28 06:17:00,
2013-11-27 23:22:00,36.5,28.3,30.38,North,350,0.0,1.0,72,0.00,,,0.00,WeatherTracker,2013-11-28 06:22:00,
2013-11-27 23:27:00,37.0,28.1,30.38,North,350,0.0,2.0,70,0.00,,,0.00,WeatherTracker,2013-11-28 06:27:00,
2013-11-27 23:32:00,37.1,28.2,30.38,North,350,0.0,2.0,70,0.00,,,0.00,WeatherTracker,2013-11-28 06:32:00,
2013-11-27 23:38:00,37.1,28.2,30.38,North,350,0.0,2.0,70,0.00,,,0.00,WeatherTracker,2013-11-28 06:38:00,
2013-11-27 23:42:00,36.7,27.9,30.38,North,350,0.0,2.0,70,0.00,,,0.00,WeatherTracker,2013-11-28 06:42:00,
2013-11-27 23:47:00,36.0,27.5,30.38,North,350,0.0,1.0,71,0.00,,,0.00,WeatherTracker,2013-11-28 06:47:00,
2013-11-27 23:52:00,35.2,27.4,30.38,North,350,0.0,0.0,73,0.00,,,0.00,WeatherTracker,2013-11-28 06:52:00,
2013-11-27 23:58:00,34.5,27.1,30.38,North,350,0.0,0.0,74,0.00,,,0.00,WeatherTracker,2013-11-28 06:58:00,